TimeCST,TemperatureF,Dew PointF,Humidity,Sea Level PressureIn,VisibilityMPH,Wind Direction,Wind SpeedMPH,Gust SpeedMPH,PrecipitationIn,Events,Conditions,WindDirDegrees,DateUTC
12:24 AM,39.2,33.8,81,30.26,7.0,ESE,12.7,17.3,N/A,,Mostly Cloudy,110,2013-02-09 06:24:00
12:53 AM,39.0,34.0,82,30.26,6.0,East,10.4,-,N/A,,Haze,100,2013-02-09 06:53:00
1:53 AM,37.9,33.1,83,30.28,6.0,East,8.1,-,N/A,,Haze,80,2013-02-09 07:53:00
2:53 AM,37.9,32.0,79,30.27,6.0,ESE,8.1,-,N/A,,Haze,120,2013-02-09 08:53:00
3:53 AM,36.0,30.0,79,30.26,8.0,ESE,9.2,-,N/A,,Overcast,120,2013-02-09 09:53:00
4:39 AM,35.6,30.2,81,30.25,8.0,East,6.9,-,N/A,,Overcast,100,2013-02-09 10:39:00
4:53 AM,36.0,30.0,79,30.25,8.0,East,8.1,-,N/A,,Overcast,80,2013-02-09 10:53:00
5:53 AM,35.1,30.0,82,30.27,8.0,East,4.6,-,N/A,,Scattered Clouds,100,2013-02-09 11:53:00
6:53 AM,35.1,30.0,82,30.26,7.0,East,9.2,-,N/A,,Clear,90,2013-02-09 12:53:00
7:53 AM,36.0,30.0,79,30.27,6.0,East,8.1,-,N/A,,Haze,90,2013-02-09 13:53:00
8:53 AM,37.0,30.9,79,30.28,7.0,East,10.4,-,N/A,,Clear,90,2013-02-09 14:53:00
9:53 AM,39.0,30.9,73,30.27,7.0,ESE,11.5,-,N/A,,Partly Cloudy,120,2013-02-09 15:53:00
10:53 AM,42.1,32.0,67,30.24,10.0,ESE,10.4,-,N/A,,Clear,110,2013-02-09 16:53:00
11:53 AM,44.1,33.1,65,30.21,10.0,East,6.9,-,N/A,,Clear,100,2013-02-09 17:53:00
12:53 PM,45.0,34.0,65,30.18,10.0,East,6.9,-,N/A,,Mostly Cloudy,100,2013-02-09 18:53:00
1:12 PM,44.6,33.8,66,30.16,10.0,ESE,5.8,-,0.00,Rain,Light Rain,110,2013-02-09 19:12:00
1:53 PM,45.0,34.0,65,30.13,10.0,ESE,9.2,-,0.00,Rain,Light Rain,110,2013-02-09 19:53:00
2:46 PM,46.4,33.8,62,30.10,10.0,East,9.2,-,0.00,Rain,Light Rain,100,2013-02-09 20:46:00
2:53 PM,46.0,34.0,63,30.09,10.0,East,8.1,-,0.00,,Overcast,100,2013-02-09 20:53:00
3:53 PM,46.9,34.0,61,30.08,10.0,ESE,8.1,-,N/A,,Mostly Cloudy,110,2013-02-09 21:53:00
4:49 PM,46.4,33.8,62,30.05,10.0,East,10.4,-,N/A,,Overcast,100,2013-02-09 22:49:00
4:53 PM,46.9,34.0,61,30.06,10.0,East,10.4,-,N/A,,Overcast,100,2013-02-09 22:53:00
5:53 PM,46.9,35.1,63,30.05,10.0,ESE,5.8,-,N/A,,Overcast,110,2013-02-09 23:53:00
6:53 PM,46.9,35.1,63,30.04,10.0,ESE,6.9,-,0.00,Rain,Light Rain,110,2013-02-10 00:53:00
7:21 PM,44.6,37.4,76,30.04,8.0,East,4.6,-,0.01,Rain,Light Rain,100,2013-02-10 01:21:00
7:28 PM,44.6,37.4,76,30.04,9.0,East,4.6,-,0.01,Rain,Light Rain,90,2013-02-10 01:28:00
7:53 PM,44.1,39.0,82,30.05,8.0,ESE,3.5,-,0.01,Rain,Light Rain,110,2013-02-10 01:53:00
8:05 PM,44.6,39.2,81,30.03,9.0,ESE,6.9,-,0.00,Rain,Light Rain,110,2013-02-10 02:05:00
8:53 PM,45.0,39.0,80,30.02,9.0,East,10.4,-,0.00,Rain,Light Rain,100,2013-02-10 02:53:00
9:53 PM,45.0,39.9,82,30.00,10.0,ESE,8.1,-,0.01,Rain,Light Rain,110,2013-02-10 03:53:00
10:46 PM,46.4,41.0,81,29.98,10.0,East,8.1,-,0.00,Rain,Light Rain,100,2013-02-10 04:46:00
10:53 PM,46.0,41.0,83,29.98,10.0,ESE,6.9,-,0.00,Rain,Light Rain,110,2013-02-10 04:53:00
11:53 PM,46.0,41.0,83,29.95,9.0,East,10.4,-,0.00,Rain,Light Rain,90,2013-02-10 05:53:00